| time (UTC) | temp F | wind direction | speed knots | gust knots | rain 1hr in | rain 24hr in | rain mn in | humidity % | barometer mb |
| 20260506013507 | 63 | 71 | 0.9 | 2.6 | 0.00 | 0.00 | 0.00 | 63 | 1014.6 |
| 20260506013020 | 63 | 114 | 0.0 | 2.6 | 0.00 | 0.00 | 0.00 | 62 | 1014.5 |
| 20260506012509 | 64 | 81 | 1.7 | 2.6 | 0.00 | 0.00 | 0.00 | 60 | 1014.3 |
| 20260506012009 | 65 | 33 | 0.9 | 1.7 | 0.00 | 0.00 | 0.00 | 57 | 1014.4 |
| 20260506011555 | 65 | 232 | 0.0 | 2.6 | 0.00 | 0.00 | 0.00 | 58 | 1014.6 |
| 20260506011008 | 66 | 51 | 0.0 | 2.6 | 0.00 | 0.00 | 0.00 | 56 | 1014.4 |
| 20260506010506 | 66 | 80 | 1.7 | 2.6 | 0.00 | 0.00 | 0.00 | 54 | 1014.4 |
| 20260506010017 | 67 | 104 | 0.9 | 6.1 | 0.00 | 0.00 | 0.00 | 53 | 1014.5 |
| 20260506005506 | 67 | 67 | 1.7 | 6.1 | 0.00 | 0.00 | 0.00 | 52 | 1014.4 |
| 20260506005008 | 67 | 135 | 0.9 | 3.5 | 0.00 | 0.00 | 0.00 | 55 | 1014.4 |
| 20260506004519 | 66 | 155 | 0.9 | 3.5 | 0.00 | 0.00 | 0.00 | 52 | 1014.6 |
| 20260506004010 | 67 | 109 | 0.0 | 2.6 | 0.00 | 0.00 | 0.00 | 55 | 1014.6 |
| 20260506003513 | 67 | 255 | 0.0 | 1.7 | 0.00 | 0.00 | 0.00 | 53 | 1014.6 |
| 20260506003026 | 67 | 55 | 0.0 | 3.5 | 0.00 | 0.00 | 0.00 | 52 | 1014.6 |
| 20260506002509 | 67 | 158 | 0.9 | 6.1 | 0.00 | 0.00 | 0.00 | 52 | 1014.6 |
| 20260506002009 | 67 | 160 | 1.7 | 6.1 | 0.00 | 0.00 | 0.00 | 51 | 1014.5 |
| 20260506001515 | 68 | 146 | 1.7 | 4.3 | 0.00 | 0.00 | 0.00 | 50 | 1014.5 |
| 20260506001006 | 68 | 153 | 1.7 | 3.5 | 0.00 | 0.00 | 0.00 | 51 | 1014.5 |
| 20260506000514 | 68 | 181 | 0.0 | 3.5 | 0.00 | 0.00 | 0.00 | 47 | 1014.8 |
| 20260506000043 | 69 | 204 | 1.7 | 4.3 | 0.00 | 0.00 | 0.00 | 46 | 1014.6 |
| 20260505235509 | 69 | 117 | 0.9 | 5.2 | 0.00 | 0.00 | 0.00 | 45 | 1014.3 |
| 20260505235011 | 69 | 208 | 1.7 | 7.0 | 0.00 | 0.00 | 0.00 | 45 | 1014.2 |
| 20260505234526 | 69 | 148 | 0.9 | 7.0 | 0.00 | 0.00 | 0.00 | 45 | 1014.3 |
| 20260505234008 | 69 | 124 | 0.9 | 5.2 | 0.00 | 0.00 | 0.00 | 45 | 1014.4 |
| 20260505233506 | 70 | 123 | 0.9 | 7.8 | 0.00 | 0.00 | 0.00 | 45 | 1014.4 |
| 20260505233017 | 70 | 115 | 0.9 | 7.8 | 0.00 | 0.00 | 0.00 | 43 | 1014.5 |
| 20260505232513 | 70 | 116 | 1.7 | 6.1 | 0.00 | 0.00 | 0.00 | 44 | 1014.5 |
| 20260505232011 | 70 | 169 | 0.9 | 6.1 | 0.00 | 0.00 | 0.00 | 44 | 1014.5 |
| 20260505231529 | 70 | 173 | 1.7 | 8.7 | 0.00 | 0.00 | 0.00 | 44 | 1014.4 |
| 20260505231009 | 70 | 142 | 3.5 | 8.7 | 0.00 | 0.00 | 0.00 | 43 | 1014.3 |
| 20260505230507 | 70 | 130 | 2.6 | 7.0 | 0.00 | 0.00 | 0.00 | 43 | 1014.4 |
| 20260505230023 | 71 | 190 | 3.5 | 9.6 | 0.00 | 0.00 | 0.00 | 42 | 1014.5 |
| 20260505225510 | 71 | 201 | 2.6 | 9.6 | 0.00 | 0.00 | 0.00 | 42 | 1014.4 |
| 20260505225009 | 71 | 170 | 3.5 | 7.0 | 0.00 | 0.00 | 0.00 | 45 | 1014.6 |
| 20260505224534 | 72 | 185 | 3.5 | 8.7 | 0.00 | 0.00 | 0.00 | 41 | 1014.8 |
| 20260505224010 | 72 | 202 | 4.3 | 8.7 | 0.00 | 0.00 | 0.00 | 42 | 1014.9 |
| 20260505223511 | 72 | 184 | 5.2 | 8.7 | 0.00 | 0.00 | 0.00 | 39 | 1014.7 |
| 20260505223028 | 72 | 164 | 5.2 | 8.7 | 0.00 | 0.00 | 0.00 | 39 | 1014.7 |
| 20260505222510 | 73 | 174 | 3.5 | 7.8 | 0.00 | 0.00 | 0.00 | 40 | 1014.8 |
| 20260505222007 | 73 | 203 | 4.3 | 7.8 | 0.00 | 0.00 | 0.00 | 40 | 1014.7 |
| 20260505221521 | 73 | 161 | 2.6 | 9.6 | 0.00 | 0.00 | 0.00 | 41 | 1014.6 |
| 20260505221008 | 74 | 183 | 3.5 | 13.0 | 0.00 | 0.00 | 0.00 | 39 | 1014.6 |
| 20260505220508 | 74 | 240 | 5.2 | 13.0 | 0.00 | 0.00 | 0.00 | 38 | 1014.6 |
| 20260505220024 | 75 | 192 | 4.3 | 10.4 | 0.00 | 0.00 | 0.00 | 38 | 1014.6 |
| 20260505215511 | 75 | 156 | 5.2 | 10.4 | 0.00 | 0.00 | 0.00 | 38 | 1014.4 |
| 20260505215012 | 75 | 118 | 1.7 | 9.6 | 0.00 | 0.00 | 0.00 | 39 | 1014.3 |
| 20260505214517 | 75 | 180 | 3.5 | 9.6 | 0.00 | 0.00 | 0.00 | 39 | 1014.3 |
| 20260505214007 | 75 | 163 | 4.3 | 9.6 | 0.00 | 0.00 | 0.00 | 38 | 1014.3 |
| 20260505213509 | 76 | 183 | 3.5 | 8.7 | 0.00 | 0.00 | 0.00 | 38 | 1014.3 |
| 20260505213024 | 76 | 188 | 3.5 | 8.7 | 0.00 | 0.00 | 0.00 | 39 | 1014.3 |
| 20260505212510 | 76 | 150 | 3.5 | 13.0 | 0.00 | 0.00 | 0.00 | 40 | 1014.3 |
| 20260505212013 | 76 | 154 | 5.2 | 13.0 | 0.00 | 0.00 | 0.00 | 37 | 1014.3 |
| 20260505211529 | 75 | 223 | 6.1 | 13.9 | 0.00 | 0.00 | 0.00 | 36 | 1014.2 |
| 20260505211010 | 75 | 163 | 5.2 | 13.9 | 0.00 | 0.00 | 0.00 | 36 | 1014.3 |
| 20260505210506 | 74 | 237 | 4.3 | 13.0 | 0.00 | 0.00 | 0.00 | 35 | 1014.3 |
| 20260505210016 | 75 | 225 | 6.1 | 10.4 | 0.00 | 0.00 | 0.00 | 36 | 1014.3 |
| 20260505205506 | 75 | 155 | 4.3 | 13.0 | 0.00 | 0.00 | 0.00 | 37 | 1014.3 |
| 20260505205009 | 75 | 127 | 4.3 | 13.0 | 0.00 | 0.00 | 0.00 | 39 | 1014.2 |
| 20260505204536 | 75 | 126 | 4.3 | 14.8 | 0.00 | 0.00 | 0.00 | 37 | 1014.2 |
| 20260505204009 | 74 | 91 | 3.5 | 14.8 | 0.00 | 0.00 | 0.00 | 41 | 1014.3 |
| 20260505203514 | 75 | 126 | 3.5 | 12.2 | 0.00 | 0.00 | 0.00 | 42 | 1014.3 |
| 20260505203026 | 75 | 136 | 5.2 | 16.5 | 0.00 | 0.00 | 0.00 | 43 | 1014.4 |
| 20260505202507 | 75 | 89 | 5.2 | 16.5 | 0.00 | 0.00 | 0.00 | 40 | 1014.4 |
| 20260505202007 | 75 | 222 | 3.5 | 12.2 | 0.00 | 0.00 | 0.00 | 39 | 1014.4 |
| 20260505201524 | 75 | 178 | 4.3 | 12.2 | 0.00 | 0.00 | 0.00 | 41 | 1014.4 |
| 20260505201011 | 75 | 79 | 6.1 | 12.2 | 0.00 | 0.00 | 0.00 | 38 | 1014.4 |
| 20260505200512 | 75 | 173 | 5.2 | 13.0 | 0.00 | 0.00 | 0.00 | 40 | 1014.5 |
| 20260505200026 | 75 | 184 | 7.0 | 13.0 | 0.00 | 0.00 | 0.00 | 40 | 1014.6 |
| 20260505195507 | 75 | 246 | 1.7 | 12.2 | 0.00 | 0.00 | 0.00 | 43 | 1014.6 |
| 20260505195008 | 75 | 178 | 4.3 | 12.2 | 0.00 | 0.00 | 0.00 | 41 | 1014.5 |
| 20260505194517 | 76 | 103 | 3.5 | 13.0 | 0.00 | 0.00 | 0.00 | 40 | 1014.5 |
| 20260505194011 | 76 | 165 | 6.1 | 13.0 | 0.00 | 0.00 | 0.00 | 41 | 1014.6 |
| 20260505193509 | 75 | 166 | 1.7 | 17.4 | 0.00 | 0.00 | 0.00 | 43 | 1014.8 |
| 20260505193025 | 75 | 189 | 2.6 | 17.4 | 0.00 | 0.00 | 0.00 | 40 | 1015.0 |
| 20260505193015 | 75 | 185 | 3.5 | 17.4 | 0.00 | 0.00 | 0.00 | 40 | 1015.0 |
| 20260505192504 | 75 | 109 | 2.6 | 11.3 | 0.00 | 0.00 | 0.00 | 41 | 1015.1 |
| 20260505192003 | 75 | 113 | 7.0 | 11.3 | 0.00 | 0.00 | 0.00 | 39 | 1015.3 |
| 20260505191507 | 75 | 117 | 4.3 | 13.9 | 0.00 | 0.00 | 0.00 | 40 | 1015.3 |
| 20260505191004 | 75 | 178 | 7.0 | 13.9 | 0.00 | 0.00 | 0.00 | 39 | 1015.3 |
| 20260505190503 | 75 | 157 | 3.5 | 9.6 | 0.00 | 0.00 | 0.00 | 42 | 1015.4 |
| 20260505190009 | 75 | 126 | 3.5 | 11.3 | 0.00 | 0.00 | 0.00 | 42 | 1015.6 |
| 20260505185503 | 75 | 178 | 4.3 | 11.3 | 0.00 | 0.00 | 0.00 | 38 | 1015.5 |
| 20260505185007 | 74 | 191 | 1.7 | 11.3 | 0.00 | 0.00 | 0.00 | 37 | 1015.5 |
| 20260505184507 | 74 | 197 | 6.1 | 20.0 | 0.00 | 0.00 | 0.00 | 36 | 1015.5 |
| 20260505184006 | 74 | 235 | 7.0 | 20.0 | 0.00 | 0.00 | 0.00 | 35 | 1015.7 |
| 20260505183508 | 74 | 213 | 5.2 | 10.4 | 0.00 | 0.00 | 0.00 | 32 | 1015.9 |
| 20260505183011 | 74 | 229 | 5.2 | 13.0 | 0.00 | 0.00 | 0.00 | 36 | 1015.8 |
| 20260505182505 | 75 | 192 | 6.1 | 10.4 | 0.00 | 0.00 | 0.00 | 35 | 1016.0 |
| 20260505182006 | 74 | 98 | 1.7 | 8.7 | 0.00 | 0.00 | 0.00 | 37 | 1015.9 |
| 20260505181504 | 74 | 227 | 1.7 | 10.4 | 0.00 | 0.00 | 0.00 | 40 | 1016.0 |
| 20260505181003 | 74 | 178 | 2.6 | 10.4 | 0.00 | 0.00 | 0.00 | 37 | 1016.1 |
| 20260505180504 | 74 | 190 | 6.1 | 10.4 | 0.00 | 0.00 | 0.00 | 41 | 1016.1 |
| 20260505180007 | 74 | 238 | 3.5 | 9.6 | 0.00 | 0.00 | 0.00 | 38 | 1016.1 |
| 20260505175503 | 74 | 115 | 4.3 | 7.8 | 0.00 | 0.00 | 0.00 | 37 | 1016.2 |
| 20260505175005 | 74 | 198 | 4.3 | 8.7 | 0.00 | 0.00 | 0.00 | 39 | 1016.3 |
| 20260505174510 | 73 | 190 | 6.1 | 9.6 | 0.00 | 0.00 | 0.00 | 39 | 1016.4 |
| 20260505174005 | 73 | 118 | 4.3 | 10.4 | 0.00 | 0.00 | 0.00 | 40 | 1016.4 |
| 20260505173501 | 74 | 108 | 4.3 | 8.7 | 0.00 | 0.00 | 0.00 | 41 | 1016.4 |
| 20260505173007 | 73 | 125 | 2.6 | 14.8 | 0.00 | 0.00 | 0.00 | 40 | 1016.4 |
| 20260505172502 | 73 | 144 | 3.5 | 14.8 | 0.00 | 0.00 | 0.00 | 41 | 1016.5 |
| 20260505172008 | 73 | 199 | 5.2 | 8.7 | 0.00 | 0.00 | 0.00 | 41 | 1016.5 |
| 20260505171513 | 73 | 198 | 2.6 | 9.6 | 0.00 | 0.00 | 0.00 | 40 | 1016.6 |
| 20260505171006 | 73 | 170 | 6.1 | 9.6 | 0.00 | 0.00 | 0.00 | 41 | 1016.6 |
| 20260505170508 | 72 | 157 | 5.2 | 9.6 | 0.00 | 0.00 | 0.00 | 41 | 1016.6 |
| 20260505170011 | 73 | 218 | 1.7 | 9.6 | 0.00 | 0.00 | 0.00 | 40 | 1016.7 |
| 20260505165502 | 73 | 223 | 5.2 | 8.7 | 0.00 | 0.00 | 0.00 | 40 | 1016.8 |
| 20260505165003 | 73 | 190 | 3.5 | 7.8 | 0.00 | 0.00 | 0.00 | 40 | 1016.9 |
| 20260505164508 | 73 | 158 | 3.5 | 7.0 | 0.00 | 0.00 | 0.00 | 41 | 1016.8 |
| 20260505164006 | 73 | 202 | 3.5 | 7.0 | 0.00 | 0.00 | 0.00 | 41 | 1016.9 |
| 20260505163507 | 73 | 192 | 3.5 | 5.2 | 0.00 | 0.00 | 0.00 | 44 | 1016.8 |
| 20260505163016 | 72 | 191 | 1.7 | 6.1 | 0.00 | 0.00 | 0.00 | 40 | 1016.7 |
| 20260505162505 | 72 | 96 | 2.6 | 6.1 | 0.00 | 0.00 | 0.00 | 42 | 1016.7 |
| 20260505162006 | 72 | 190 | 3.5 | 9.6 | 0.00 | 0.00 | 0.00 | 43 | 1016.7 |
| 20260505161504 | 72 | 218 | 6.1 | 9.6 | 0.00 | 0.00 | 0.00 | 44 | 1016.7 |
| 20260505161002 | 72 | 213 | 4.3 | 7.8 | 0.00 | 0.00 | 0.00 | 46 | 1016.6 |
| 20260505160505 | 72 | 89 | 3.5 | 6.1 | 0.00 | 0.00 | 0.00 | 44 | 1016.6 |
| 20260505153008 | 70 | 262 | 2.6 | 6.1 | 0.00 | 0.00 | 0.00 | 47 | 1017.0 |
| 20260505152505 | 70 | 126 | 0.9 | 3.5 | 0.00 | 0.00 | 0.00 | 45 | 1017.1 |
| 20260505152012 | 69 | 194 | 1.7 | 4.3 | 0.00 | 0.00 | 0.00 | 46 | 1017.1 |
| 20260505151516 | 70 | 213 | 2.6 | 3.5 | 0.00 | 0.00 | 0.00 | 48 | 1017.1 |
| 20260505151009 | 70 | 302 | 0.9 | 1.7 | 0.00 | 0.00 | 0.00 | 47 | 1017.0 |
| 20260505150507 | 70 | 312 | 0.9 | 1.7 | 0.00 | 0.00 | 0.00 | 46 | 1017.0 |
| 20260505140507 | 62 | 115 | 1.7 | 3.5 | 0.00 | 0.00 | 0.00 | 71 | 1017.4 |
| 20260505125008 | 56 | 38 | 0.0 | 2.6 | 0.00 | 0.00 | 0.00 | 80 | 1016.9 |
| 20260505124518 | 56 | 68 | 0.0 | 2.6 | 0.00 | 0.00 | 0.00 | 82 | 1016.9 |
| 20260505124006 | 56 | 151 | 0.0 | 1.7 | 0.00 | 0.00 | 0.00 | 82 | 1016.8 |
| 20260505123508 | 55 | 40 | 0.0 | 1.7 | 0.00 | 0.00 | 0.00 | 83 | 1016.8 |
| 20260505123018 | 54 | 57 | 0.0 | 1.7 | 0.00 | 0.00 | 0.00 | 84 | 1016.7 |
| 20260505122510 | 54 | 65 | 0.0 | 1.7 | 0.00 | 0.00 | 0.00 | 85 | 1016.7 |
| 20260505122007 | 53 | 65 | 0.0 | 1.7 | 0.00 | 0.00 | 0.00 | 86 | 1016.7 |
| 20260505121524 | 52 | 40 | 0.0 | 1.7 | 0.00 | 0.00 | 0.00 | 88 | 1016.7 |
| 20260505121003 | 51 | 26 | 0.0 | 0.0 | 0.00 | 0.00 | 0.00 | 89 | 1016.7 |
| 20260505120508 | 50 | 42 | 0.0 | 0.0 | 0.00 | 0.00 | 0.00 | 89 | 1016.7 |
| 20260505120020 | 49 | 54 | 0.0 | 0.0 | 0.00 | 0.00 | 0.00 | 92 | 1016.7 |
| 20260505115507 | 48 | 54 | 0.0 | 1.7 | 0.00 | 0.00 | 0.00 | 93 | 1016.6 |
| 20260505115012 | 47 | 54 | 0.0 | 1.7 | 0.00 | 0.00 | 0.00 | 94 | 1016.4 |
| 20260505114519 | 46 | 113 | 0.0 | 1.7 | 0.00 | 0.00 | 0.00 | 95 | 1016.4 |
| 20260505114009 | 46 | 66 | 0.0 | 1.7 | 0.00 | 0.00 | 0.00 | 95 | 1016.3 |
| 20260505113503 | 45 | 97 | 0.0 | 1.7 | 0.00 | 0.00 | 0.00 | 95 | 1016.3 |
| 20260505113012 | 44 | 97 | 0.0 | 0.9 | 0.00 | 0.00 | 0.00 | 95 | 1016.3 |
| 20260505112507 | 43 | 97 | 0.0 | 0.9 | 0.00 | 0.00 | 0.00 | 94 | 1016.3 |
| 20260505112007 | 43 | 126 | 0.0 | 0.0 | 0.00 | 0.00 | 0.00 | 94 | 1016.3 |
| 20260505111529 | 43 | 126 | 0.0 | 1.7 | 0.00 | 0.00 | 0.00 | 94 | 1016.3 |
| 20260505111006 | 42 | 126 | 0.0 | 1.7 | 0.00 | 0.00 | 0.00 | 94 | 1016.2 |
| 20260505110508 | 42 | 338 | 0.0 | 1.7 | 0.00 | 0.00 | 0.00 | 93 | 1016.2 |
| 20260505102006 | 43 | 38 | 0.0 | 1.7 | 0.00 | 0.00 | 0.00 | 92 | 1016.3 |
| 20260505101513 | 43 | 38 | 0.0 | 1.7 | 0.00 | 0.00 | 0.00 | 93 | 1016.2 |
| 20260505101008 | 43 | 38 | 0.9 | 1.7 | 0.00 | 0.00 | 0.00 | 93 | 1016.1 |
| 20260505100507 | 43 | 38 | 0.0 | 1.7 | 0.00 | 0.00 | 0.00 | 93 | 1016.1 |
| 20260505100011 | 43 | 59 | 0.0 | 1.7 | 0.00 | 0.00 | 0.00 | 92 | 1016.1 |
| 20260505095503 | 43 | 288 | 0.0 | 1.7 | 0.00 | 0.00 | 0.00 | 92 | 1016.1 |
| 20260505095005 | 43 | 15 | 0.9 | 1.7 | 0.00 | 0.00 | 0.00 | 93 | 1016.0 |
| 20260505094513 | 44 | 36 | 0.9 | 1.7 | 0.00 | 0.00 | 0.00 | 92 | 1016.1 |
| 20260505094006 | 44 | 67 | 0.0 | 0.9 | 0.00 | 0.00 | 0.00 | 92 | 1016.1 |
| 20260505093507 | 44 | 128 | 0.0 | 1.7 | 0.00 | 0.00 | 0.00 | 93 | 1016.0 |
| 20260505093027 | 44 | 248 | 0.0 | 1.7 | 0.00 | 0.00 | 0.00 | 92 | 1016.1 |
| 20260505092508 | 44 | 62 | 0.9 | 1.7 | 0.00 | 0.00 | 0.00 | 92 | 1016.1 |
| 20260505092004 | 44 | 53 | 0.0 | 1.7 | 0.00 | 0.00 | 0.00 | 90 | 1016.2 |
| 20260505091513 | 44 | 53 | 0.0 | 1.7 | 0.00 | 0.00 | 0.00 | 92 | 1016.2 |
| 20260505091004 | 44 | 276 | 0.0 | 2.6 | 0.00 | 0.00 | 0.00 | 91 | 1016.3 |
| 20260505090504 | 44 | 45 | 1.7 | 2.6 | 0.00 | 0.00 | 0.00 | 92 | 1016.3 |
| 20260505090012 | 44 | 51 | 0.0 | 1.7 | 0.00 | 0.00 | 0.00 | 91 | 1016.3 |
| 20260505085507 | 44 | 44 | 0.0 | 1.7 | 0.00 | 0.00 | 0.00 | 90 | 1016.3 |
| 20260505085013 | 44 | 44 | 0.9 | 1.7 | 0.00 | 0.00 | 0.00 | 91 | 1016.2 |
| 20260505084524 | 44 | 63 | 0.0 | 1.7 | 0.00 | 0.00 | 0.00 | 91 | 1016.2 |
| 20260505084004 | 45 | 63 | 0.0 | 1.7 | 0.00 | 0.00 | 0.00 | 91 | 1016.2 |
| 20260505083509 | 45 | 136 | 0.0 | 1.7 | 0.00 | 0.00 | 0.00 | 91 | 1016.3 |
| 20260505083005 | 45 | 136 | 0.0 | 1.7 | 0.00 | 0.00 | 0.00 | 91 | 1016.1 |
| 20260505082503 | 45 | 60 | 0.9 | 1.7 | 0.00 | 0.00 | 0.00 | 91 | 1016.1 |
| 20260505082004 | 45 | 60 | 0.0 | 1.7 | 0.00 | 0.00 | 0.00 | 92 | 1016.2 |
| 20260505081517 | 45 | 96 | 0.0 | 1.7 | 0.00 | 0.00 | 0.00 | 92 | 1016.2 |
| 20260505081009 | 45 | 52 | 0.9 | 1.7 | 0.00 | 0.00 | 0.00 | 91 | 1016.2 |
| 20260505080508 | 45 | 349 | 0.0 | 2.6 | 0.00 | 0.00 | 0.00 | 90 | 1016.2 |
| 20260505080004 | 45 | 61 | 0.9 | 2.6 | 0.00 | 0.00 | 0.00 | 93 | 1016.2 |
| 20260505075504 | 45 | 184 | 1.7 | 2.6 | 0.00 | 0.00 | 0.00 | 92 | 1016.2 |
| 20260505075005 | 45 | 55 | 0.9 | 1.7 | 0.00 | 0.00 | 0.00 | 91 | 1016.1 |
| 20260505074511 | 45 | 56 | 0.0 | 1.7 | 0.00 | 0.00 | 0.00 | 90 | 1016.2 |
| 20260505074004 | 45 | 56 | 0.0 | 1.7 | 0.00 | 0.00 | 0.00 | 90 | 1016.1 |
| 20260505073505 | 45 | 56 | 0.0 | 1.7 | 0.00 | 0.00 | 0.00 | 90 | 1016.2 |
| 20260505073019 | 45 | 56 | 0.9 | 1.7 | 0.00 | 0.00 | 0.00 | 90 | 1016.2 |
| 20260505072508 | 45 | 275 | 0.0 | 1.7 | 0.00 | 0.00 | 0.00 | 89 | 1016.2 |
| 20260505072003 | 46 | 36 | 0.0 | 1.7 | 0.00 | 0.00 | 0.00 | 89 | 1016.2 |
| 20260505071504 | 46 | 36 | 0.0 | 0.9 | 0.00 | 0.00 | 0.00 | 89 | 1016.2 |
| 20260505071008 | 46 | 36 | 0.0 | 1.7 | 0.00 | 0.00 | 0.00 | 89 | 1016.2 |
| 20260505070506 | 46 | 36 | 0.9 | 1.7 | 0.00 | 0.00 | 0.00 | 89 | 1016.2 |
| 20260505070013 | 46 | 36 | 0.0 | 1.7 | 0.00 | 0.00 | 0.00 | 88 | 1016.2 |
| 20260505065507 | 46 | 36 | 0.0 | 1.7 | 0.00 | 0.00 | 0.00 | 88 | 1016.1 |
| 20260505065012 | 46 | 38 | 1.7 | 1.7 | 0.00 | 0.00 | 0.00 | 90 | 1016.1 |
| 20260505064523 | 46 | 61 | 0.0 | 0.0 | 0.00 | 0.00 | 0.00 | 89 | 1016.2 |
| 20260505064003 | 46 | 61 | 0.0 | 0.9 | 0.00 | 0.00 | 0.00 | 88 | 1016.1 |
| 20260505063504 | 46 | 61 | 0.0 | 1.7 | 0.00 | 0.00 | 0.00 | 87 | 1016.1 |
| 20260505063014 | 46 | 61 | 0.9 | 1.7 | 0.00 | 0.00 | 0.00 | 85 | 1016.1 |
| 20260505062506 | 47 | 55 | 0.9 | 1.7 | 0.00 | 0.00 | 0.00 | 87 | 1016.2 |
| 20260505062007 | 47 | 54 | 0.0 | 1.7 | 0.00 | 0.00 | 0.00 | 85 | 1016.2 |
| 20260505061522 | 47 | 54 | 0.0 | 1.7 | 0.00 | 0.00 | 0.00 | 87 | 1016.2 |
| 20260505061006 | 47 | 54 | 0.0 | 0.0 | 0.00 | 0.00 | 0.00 | 86 | 1016.2 |
| 20260505060511 | 47 | 54 | 0.0 | 0.0 | 0.00 | 0.00 | 0.00 | 85 | 1016.3 |
| 20260505060003 | 47 | 54 | 0.0 | 0.0 | 0.00 | 0.00 | 0.00 | 84 | 1016.3 |
| 20260505055503 | 48 | 54 | 0.0 | 0.0 | 0.00 | 0.00 | 0.00 | 85 | 1016.3 |
| 20260505055003 | 48 | 54 | 0.0 | 0.9 | 0.00 | 0.00 | 0.00 | 84 | 1016.3 |
| 20260505054514 | 48 | 54 | 0.0 | 1.7 | 0.00 | 0.00 | 0.00 | 83 | 1016.3 |
| 20260505054008 | 48 | 54 | 0.0 | 1.7 | 0.00 | 0.00 | 0.00 | 83 | 1016.4 |
| 20260505053510 | 48 | 54 | 0.0 | 1.7 | 0.00 | 0.00 | 0.00 | 81 | 1016.4 |
| 20260505053020 | 48 | 85 | 0.0 | 2.6 | 0.00 | 0.00 | 0.00 | 82 | 1016.3 |
| 20260505052508 | 49 | 86 | 1.7 | 2.6 | 0.00 | 0.00 | 0.00 | 81 | 1016.4 |
| 20260505052004 | 49 | 123 | 0.0 | 2.6 | 0.00 | 0.00 | 0.00 | 81 | 1016.3 |
| 20260505051508 | 49 | 82 | 0.9 | 1.7 | 0.00 | 0.00 | 0.00 | 81 | 1016.3 |
| 20260505051004 | 49 | 69 | 0.0 | 0.9 | 0.00 | 0.00 | 0.00 | 80 | 1016.3 |
| 20260505050504 | 50 | 69 | 0.0 | 1.7 | 0.00 | 0.00 | 0.00 | 81 | 1016.3 |
| 20260505041540 | 53 | 119 | 0.0 | 1.7 | 0.00 | 0.00 | 0.00 | 75 | 1016.3 |
| 20260505041007 | 53 | 123 | 0.0 | 1.7 | 0.00 | 0.00 | 0.00 | 76 | 1016.3 |
| 20260505040510 | 53 | 123 | 0.0 | 1.7 | 0.00 | 0.00 | 0.00 | 75 | 1016.3 |
| 20260505040027 | 53 | 155 | 0.0 | 1.7 | 0.00 | 0.00 | 0.00 | 75 | 1016.3 |
| 20260505035502 | 53 | 155 | 0.0 | 1.7 | 0.00 | 0.00 | 0.00 | 75 | 1016.3 |
| 20260505035007 | 53 | 121 | 0.9 | 1.7 | 0.00 | 0.00 | 0.00 | 75 | 1016.3 |
| 20260505034516 | 53 | 109 | 0.0 | 1.7 | 0.00 | 0.00 | 0.00 | 74 | 1016.4 |
| 20260505034007 | 53 | 109 | 0.0 | 1.7 | 0.00 | 0.00 | 0.00 | 74 | 1016.4 |
| 20260505033507 | 53 | 109 | 0.0 | 1.7 | 0.00 | 0.00 | 0.00 | 74 | 1016.4 |
| 20260505033024 | 53 | 109 | 0.9 | 1.7 | 0.00 | 0.00 | 0.00 | 74 | 1016.4 |
| 20260505032517 | 53 | 142 | 0.9 | 1.7 | 0.00 | 0.00 | 0.00 | 77 | 1016.4 |
| 20260505032011 | 53 | 94 | 0.0 | 1.7 | 0.00 | 0.00 | 0.00 | 75 | 1016.4 |
| 20260505031521 | 53 | 87 | 0.0 | 1.7 | 0.00 | 0.00 | 0.00 | 75 | 1016.5 |
| 20260505031004 | 54 | 87 | 0.0 | 1.7 | 0.00 | 0.00 | 0.00 | 75 | 1016.4 |
| 20260505030504 | 53 | 87 | 0.0 | 1.7 | 0.00 | 0.00 | 0.00 | 75 | 1016.5 |
| 20260505030019 | 53 | 92 | 0.0 | 0.0 | 0.00 | 0.00 | 0.00 | 75 | 1016.5 |
| 20260505025514 | 53 | 92 | 0.0 | 0.0 | 0.00 | 0.00 | 0.00 | 75 | 1016.5 |
| 20260505025010 | 53 | 92 | 0.0 | 0.0 | 0.00 | 0.00 | 0.00 | 75 | 1016.4 |
| 20260505024526 | 54 | 92 | 0.0 | 1.7 | 0.00 | 0.00 | 0.00 | 75 | 1016.4 |
| 20260505024010 | 54 | 92 | 0.0 | 1.7 | 0.00 | 0.00 | 0.00 | 74 | 1016.4 |
| 20260505023503 | 54 | 92 | 0.0 | 1.7 | 0.00 | 0.00 | 0.00 | 73 | 1016.3 |
| 20260505023015 | 55 | 107 | 0.9 | 2.6 | 0.00 | 0.00 | 0.00 | 73 | 1016.3 |
| 20260505022507 | 55 | 101 | 1.7 | 2.6 | 0.00 | 0.00 | 0.00 | 72 | 1016.3 |
| 20260505022007 | 55 | 103 | 1.7 | 2.6 | 0.00 | 0.00 | 0.00 | 72 | 1016.3 |
| 20260505021524 | 56 | 110 | 0.9 | 1.7 | 0.00 | 0.00 | 0.00 | 71 | 1016.3 |
| 20260505021008 | 57 | 96 | 0.9 | 2.6 | 0.00 | 0.00 | 0.00 | 69 | 1016.3 |
| 20260505020510 | 57 | 111 | 0.9 | 2.6 | 0.00 | 0.00 | 0.00 | 68 | 1016.2 |
| 20260505020033 | 57 | 111 | 0.9 | 2.6 | 0.00 | 0.00 | 0.00 | 68 | 1016.1 |
| 20260505015506 | 57 | 96 | 0.9 | 2.6 | 0.00 | 0.00 | 0.00 | 68 | 1016.1 |
| 20260505015005 | 57 | 105 | 0.9 | 1.7 | 0.00 | 0.00 | 0.00 | 67 | 1016.0 |
| 20260505014521 | 58 | 108 | 1.7 | 1.7 | 0.00 | 0.00 | 0.00 | 65 | 1015.9 |
| 20260505014007 | 59 | 112 | 1.7 | 1.7 | 0.00 | 0.00 | 0.00 | 63 | 1015.8 |